This is the latest recevied weather packets stored in our database for station/object K1WJY. If no packets are shown the sender has not sent any weather packets the latest 10 day(s).
| Time | Temp. | Humidity | Pressure | Rain* | Wind** | Luminosity | Snow |
|---|---|---|---|---|---|---|---|
| 1787761757 | 27.22° C | 55% | 1018.6 hPa | 0 mm | - | 712 W/m² | - |
| 1787761453 | 26.67° C | 59% | 1018.3 hPa | 0 mm | - | 714 W/m² | - |
| 1787761153 | 27.22° C | 58% | 1018.7 hPa | 0 mm | - | 695 W/m² | - |
| 1787760847 | 27.78° C | 58% | 1018.5 hPa | 0 mm | - | 698 W/m² | - |
| 1787760545 | 26.67° C | 56% | 1018.5 hPa | 0 mm | - | 693 W/m² | - |
| 1787760240 | 27.22° C | 58% | 1018.3 hPa | 0 mm | - | 723 W/m² | - |
| 1787759936 | 26.67° C | 61% | 1018.6 hPa | 0 mm | - | 736 W/m² | - |
| 1787759631 | 26.11° C | 61% | 1018.7 hPa | 0 mm | - | 764 W/m² | - |
| 1787759327 | 26.11° C | 61% | 1018.5 hPa | 0 mm | - | 413 W/m² | - |
| 1787759022 | 27.22° C | 58% | 1018.7 hPa | 0 mm | - | 779 W/m² | - |
| 1787758721 | 26.67° C | 60% | 1018.6 hPa | 0 mm | - | 698 W/m² | - |
| 1787758417 | 26.11° C | 62% | 1018.7 hPa | 0 mm | - | 688 W/m² | - |
| 1787758115 | 26.67° C | 66% | 1018.6 hPa | 0 mm | - | 701 W/m² | - |
| 1787757812 | 26.11° C | 65% | 1018.6 hPa | 0 mm | - | 706 W/m² | - |
| 1787757507 | 25° C | 67% | 1018.6 hPa | 0 mm | - | 728 W/m² | - |
| 1787757201 | 24.44° C | 71% | 1018.7 hPa | 0 mm | - | 492 W/m² | - |
| 1787756900 | 25° C | 67% | 1018.8 hPa | 0 mm | - | 142 W/m² | - |
| 1787756596 | 26.11° C | 67% | 1018.6 hPa | 0 mm | - | 172 W/m² | - |
| 1787756295 | 26.67° C | 66% | 1018.8 hPa | 0 mm | - | 793 W/m² | - |
| 1787755990 | 25.56° C | 68% | 1018.5 hPa | 0 mm | - | 771 W/m² | - |
| 1787755689 | 24.44° C | 71% | 1018.6 hPa | 0 mm | - | 778 W/m² | - |
| 1787755384 | 25.56° C | 69% | 1018.8 hPa | 0 mm | - | 166 W/m² | - |
| 1787755084 | 26.67° C | 64% | 1018.5 hPa | 0 mm | - | 729 W/m² | - |
| 1787754778 | 26.11° C | 67% | 1018.7 hPa | 0 mm | - | 782 W/m² | - |
| 1787754476 | 25.56° C | 67% | 1018.5 hPa | 0 mm | - | 739 W/m² | - |
* Rain latest hour (hover to see other rain measurements)
** Current wind speed in m/s (hover to see current wind gust speed)